Location: Unspecified
(0.0000°N, 0.0000°E)
Time: 12:03:17
(UTC+00:00)

Courier 1B Rocket - Pass Details

Date: 19 December 2018
Orbit: 920 x 1202 km, 28.2° (Epoch: 15 July)

Event Time Altitude Azimuth Distance (km) Brightness Sun altitude
Rises 13:34:20 0° 319° (NW) 3,863 8.1 56.8°
Reaches altitude 10° 13:37:24 10° 330° (NNW) 2,954 7.6 56.2°
Maximum altitude 13:43:40 30° 28° (NNE) 1,927 6.6 55.1°
Drops below altitude 10° 13:50:12 10° 87° (E) 3,099 7.5 53.9°
Sets 13:53:30 0° 97° (E) 4,083 8.0 53.3°
